FW1504 Weather Reports


Display with metric or nautical units.
time (UTC)temp
F
wind
direction
speed
MPH
gust
MPH
rain 1hr
in
rain 24hr
in
rain mn
in
humidity
%
barometer
mb
20260509064504 60 112 0.0 0.0 0.00 0.41 0.00 94 1011.0
20260509063003 61 115 0.0 0.0 0.00 0.41 0.00 94 1011.1
20260509061502 60 360 0.0 0.0 0.00 0.41 0.00 94 1011.3
20260509060002 60 360 0.0 0.0 0.00 0.41 0.00 94 1011.4
20260509054502 60 360 0.0 1.0 0.00 0.41 0.00 94 1011.4
20260509053003 61 360 0.0 0.0 0.00 0.41 0.00 94 1011.4
20260509051559 60 360 0.0 2.0 0.00 0.41 0.00 94 1010.8
20260509050105 60 360 0.0 2.0 0.00 0.41 0.41 93 1010.2
20260509044554 61 167 0.0 1.0 0.00 0.41 0.41 93 1009.9
20260509043058 61 167 0.0 1.0 0.00 0.41 0.41 93 1010.0
20260509041553 62 167 0.0 1.0 0.00 0.41 0.41 93 1010.1
20260509040052 62 167 0.0 1.0 0.00 0.41 0.41 93 1010.1
20260509034555 63 167 0.0 0.0 0.00 0.41 0.41 93 1010.0
20260509033054 63 167 0.0 0.0 0.00 0.41 0.41 93 1009.7
20260509031550 63 167 0.0 1.0 0.00 0.41 0.41 93 1009.7
20260509030050 63 167 0.0 1.0 0.00 0.41 0.41 93 1009.3
20260509024549 63 167 0.0 1.0 0.00 0.41 0.41 93 1009.2
20260509023049 63 167 0.0 0.0 0.00 0.41 0.41 93 1008.7
20260509021549 63 167 0.0 1.0 0.00 0.41 0.41 93 1008.3
20260509020047 63 167 0.0 0.0 0.00 0.41 0.41 93 1008.4
20260509014547 63 167 0.0 0.0 0.00 0.41 0.41 93 1008.6
20260509013053 63 167 0.0 0.0 0.00 0.41 0.41 92 1008.4
20260509011546 63 165 0.0 2.0 0.00 0.41 0.41 92 1007.6
20260509010045 63 165 0.0 2.0 0.01 0.41 0.41 92 1007.3
20260509004556 63 164 0.0 5.0 0.25 0.41 0.41 92 1007.0
20260509003045 63 176 1.0 4.0 0.39 0.41 0.41 91 1007.2
20260509001550 63 201 0.0 2.0 0.41 0.41 0.41 90 1006.7
20260509000045 63 211 0.0 1.0 0.40 0.40 0.40 88 1007.4
20260508234543 63 30 0.0 8.0 0.16 0.16 0.16 86 1008.1
20260508233039 69 325 3.0 11.0 0.02 0.02 0.02 74 1007.4
20260508231538 80 360 2.0 9.0 0.00 0.00 0.00 56 1005.3
20260508230038 81 360 3.0 8.0 0.00 0.00 0.00 55 1005.6
20260508224546 82 360 2.0 4.0 0.00 0.00 0.00 54 1005.4
20260508223044 83 165 1.0 7.0 0.00 0.00 0.00 54 1005.6
20260508221534 83 198 2.0 9.0 0.00 0.00 0.00 54 1005.8
20260508220031 83 164 2.0 7.0 0.00 0.00 0.00 53 1006.1
20260508214548 83 360 2.0 8.0 0.00 0.00 0.00 55 1006.5
20260508213023 83 175 3.0 7.0 0.00 0.00 0.00 55 1006.8
20260508211521 82 179 1.0 5.0 0.00 0.00 0.00 54 1007.0
20260508210019 82 168 2.0 5.0 0.00 0.00 0.00 56 1007.3
20260508204518 82 265 2.0 10.0 0.00 0.00 0.00 54 1007.5
20260508203018 82 169 2.0 6.0 0.00 0.00 0.00 55 1007.6
20260508201513 81 248 2.0 5.0 0.00 0.00 0.00 54 1007.9
20260508200019 82 171 3.0 8.0 0.00 0.00 0.00 54 1008.0
20260508194509 82 107 3.0 7.0 0.00 0.00 0.00 55 1008.1
20260508193006 82 171 3.0 7.0 0.00 0.00 0.00 55 1008.4
20260508191504 81 218 2.0 12.0 0.00 0.00 0.00 54 1008.6
20260508190005 81 190 3.0 8.0 0.00 0.00 0.00 54 1009.0
20260508184604 81 159 3.0 7.0 0.00 0.00 0.00 54 1009.1
20260508183114 80 165 3.0 12.0 0.00 0.00 0.00 55 1009.4
20260508181555 79 182 3.0 12.0 0.00 0.00 0.00 54 1009.6
20260508180153 78 170 4.0 7.0 0.00 0.00 0.00 53 1009.9
20260508174605 78 167 4.0 8.0 0.00 0.00 0.00 52 1010.2
20260508173048 77 209 2.0 8.0 0.00 0.00 0.00 52 1010.5
20260508171546 78 182 3.0 9.0 0.00 0.00 0.00 54 1010.7
20260508170046 77 170 3.0 10.0 0.00 0.00 0.00 55 1011.0
20260508164549 77 175 3.0 9.0 0.00 0.00 0.00 57 1011.4
20260508163040 76 360 3.0 10.0 0.00 0.00 0.00 57 1011.5
20260508161538 74 175 3.0 10.0 0.00 0.00 0.00 56 1011.7
20260508160036 74 192 3.0 8.0 0.00 0.00 0.00 59 1012.3
20260508154530 73 360 5.0 11.0 0.00 0.00 0.00 57 1012.4
20260508153032 73 174 3.0 10.0 0.00 0.00 0.00 57 1012.6
20260508151522 72 175 3.0 8.0 0.00 0.00 0.00 62 1012.7
20260508150017 70 170 2.0 8.0 0.00 0.00 0.00 63 1012.8
20260508144525 70 176 3.0 9.0 0.00 0.00 0.00 63 1013.1
20260508143013 69 170 3.0 10.0 0.00 0.00 0.00 65 1013.2
20260508141512 68 186 2.0 8.0 0.00 0.00 0.00 65 1013.4
20260508140016 67 178 2.0 5.0 0.00 0.00 0.00 67 1013.5
20260508134505 65 189 2.0 7.0 0.00 0.00 0.00 70 1013.5
20260508133057 63 360 3.0 6.0 0.00 0.00 0.00 72 1013.6
20260508131605 61 360 1.0 4.0 0.00 0.00 0.00 76 1013.6
20260508130049 58 360 0.0 2.0 0.00 0.00 0.00 82 1013.8
20260508124544 55 360 0.0 1.0 0.00 0.00 0.00 86 1013.6
20260508123042 54 178 0.0 1.0 0.00 0.00 0.00 86 1013.4
20260508121538 54 178 0.0 1.0 0.00 0.00 0.00 86 1013.4
20260508120043 53 178 0.0 1.0 0.00 0.00 0.00 86 1013.3
20260508114545 53 178 0.0 1.0 0.00 0.00 0.00 85 1013.2
20260508113031 53 173 0.0 1.0 0.00 0.00 0.00 85 1013.2
20260508111530 53 173 0.0 1.0 0.00 0.00 0.00 84 1013.1
20260508110032 54 173 0.0 1.0 0.00 0.00 0.00 83 1013.1
20260508104530 54 172 0.0 2.0 0.00 0.00 0.00 83 1013.1
20260508103033 54 173 0.0 2.0 0.00 0.00 0.00 82 1013.1
20260508101524 55 173 0.0 2.0 0.00 0.00 0.00 81 1013.0
20260508100022 55 173 0.0 2.0 0.00 0.00 0.00 81 1012.8
20260508094523 55 172 0.0 2.0 0.00 0.00 0.00 80 1012.6
20260508093033 56 173 1.0 3.0 0.00 0.00 0.00 80 1012.7
20260508091528 56 172 1.0 3.0 0.00 0.00 0.00 79 1012.7
20260508090016 56 172 1.0 4.0 0.00 0.00 0.00 79 1012.7
20260508084514 56 168 1.0 3.0 0.00 0.00 0.00 78 1012.8
20260508083012 56 168 1.0 2.0 0.00 0.00 0.00 77 1012.9
20260508081512 57 168 0.0 3.0 0.00 0.00 0.00 75 1013.0
20260508080009 57 169 0.0 2.0 0.00 0.00 0.00 75 1013.2
20260508074511 58 168 1.0 3.0 0.00 0.00 0.00 74 1013.2
20260508073005 58 171 1.0 4.0 0.00 0.00 0.00 73 1013.3
20260508071507 58 166 2.0 5.0 0.00 0.00 0.00 72 1013.7
20260508070100 59 162 2.0 5.0 0.00 0.00 0.00 71 1013.8